Location: Berkeley
(37.8716°N, 122.2727°W)
Time: 17:25:42
(UTC-07:00)

Envisat - Pass Details

Date: 24 February 2019
Orbit: 764 x 766 km, 98.1° (Epoch: 22 October)

Event Time Altitude Azimuth Distance (km) Brightness Sun altitude
Rises 20:00:50 0° 205° (SSW) 3,216 6.4 -25.0°
Reaches altitude 10° 20:03:49 10° 224° (SW) 2,295 5.9 -25.6°
Maximum altitude 20:07:16 18° 267° (W) 1,790 5.7 -26.3°
Drops below altitude 10° 20:10:44 10° 311° (NW) 2,305 6.2 -27.0°
Sets 20:13:46 0° 329° (NNW) 3,236 6.8 -27.6°
